FREGAT DEB, 45944

Orbit data source: Space-Track

FREGAT DEB, 45944 is space debris in LEO originally from a launch on Mon, 18 Jul 2011 UTC launched from the Tyuratam Missile And Space Complex (TTMTR). Debris objects in space refer to the collection of defunct objects orbiting the Earth. Examples of debris include non-operational satellites, rocket bodies, and fragments generated from explosions, collisions, or faulty payload assembly.

Loading next visibility...
Identifier
45944, 2011-037EZ
Orbit
LEO
Country
Flag of CISCIS
Related business
Manufacturer
Lavochkin
Mission
Spacecraft
Bus & Motor
Unknown
Mass
Unknown
Launch date (UTC)
2011-07-18 (14 years ago)
Launch vehicle
Unknown
Launch site
Tyuratam Missile And Space Complex (TTMTR)
Object type
Payload
Rocket body
Debris
Shape & HBR
Unknown
Radar Cross Section
Small (<0.1 m²)

Expand to show TLE details & history
Last TLE update: 19 hours ago

TLE from 19 hours ago
0 FREGAT DEB
1 45944U 11037EZ  25261.12034201  .00013502  00000-0  61146-1 0  9997
2 45944  51.1744 179.5058 2239100 148.9855 226.4935  9.66554663179314
Epoch: 2025-09-18T02:53Z
TLE epoch observation values (Epoch: 2025-09-18T02:53:17.549Z)
Latitude
-0°
Longitude
138.89618°
Altitude
4,563.021 km
Speed
5.483 km/s
True Right ascension
11h 58m 01s
True Declination
0° 00' 00"
Sunlit
Object was in daylight at epoch
Visualization orbit readout
Latitude
Unknown
Longitude
Unknown
Altitude
Unknown
Speed
Unknown
Apparent Right ascension
Unknown
Apparent Declination
Unknown
Sunlit
N/A
Visualization observer readout
Local Sidereal Time
14:25:35
Azimuth
Unknown
Elevation
Unknown
Doppler factor
Unknown
Orbital elements
Apogee altitude
5,016.19 km
Perigee altitude
847.086 km
Semi-major axis
9,309.775 km
Eccentricity
0.22391
Inclination
51.1744°
RAAN
179.5058°
Arg. of periapsis
148.9855°
True anomaly
211.08581°
Mean anomaly
226.4935°
Eccentric anomaly
218.50613°
Mean motion
2.41621 °/min
Orbital period
148.99 mins
BSTAR
0.061146
Loading maneuver chart data...
Computing Atmospheric mass density...
Loading historical data...
Loading historical data...
Loading historical data...
Loading historical data...
Loading historical data...
Loading historical data...
Loading historical data...

Documentation

Showing up to 5 results
|